{"data":{"norad_id":67509,"intl_designator":"2026-012S","name":"STARLINK-36541","alt_names":[],"object_type":"PAYLOAD","status":"ACTIVE","operator":null,"country":"US","launch_date":"2026-01-18","launch_site_code":"AFETR","launch_vehicle":null,"mission":null,"orbit_class":"UNKNOWN","rcs_meters":null,"size_class":null,"mass_kg":null,"dimensions":null,"purposes":["comms"],"wikipedia_slug":null,"has_3d_model":false,"image_url":null,"decayed_at":null,"tle_current":{"epoch":"2026-09-19T09:40:03.177120Z","epoch_age_seconds":167053,"freshness":"FRESH","line1":"1 67509U 26012S   26262.40281455  .00009338  00000+0  34832-3 0  9990","line2":"2 67509  43.0014 300.7887 0001360 270.0649  90.0047 15.27589124 37387","mean_motion":15.27589124,"eccentricity":0.000136,"inclination_deg":43.0014,"raan_deg":300.7887,"arg_perigee_deg":270.0649,"mean_anomaly_deg":90.0047,"bstar":0.00034832,"rev_number":3738,"period_min":94.266185676247,"perigee_km":482.08865804381,"apogee_km":483.95489323078,"semimajor_km":6861.1587756373,"source":"CELESTRAK","updated_at":"2026-09-20T09:00:43.560891Z"}}}